Flag Weather past 2 weeks in Bridgetown, Barbados

Now
79 °F

Passing clouds.


Feels Like: 82 °F
Forecast: N/A
Wind: 9 mph from East

Location: Grantley Adams

Current Time: Nov 27, 2014 at 7:33:28 PM

Latest Report: Nov 27, 2014 at 7:00 PM


Visibility: N/A

Pressure: 29.92 "Hg

Humidity: 89%

Dew point: 75 °F

Location of BridgetownLocation

Historic Weather in Bridgetown — Graph

°F

Bridgetown temperature yesterday

Maximum temperature yesterday: 84 °F (at 9:00 AM)
Minimum temperature yesterday: 77 °F (at 2:00 AM)
Average temperature yesterday: 81 °F

Past Weeks' High & Low Weather Summary

 TemperatureHumidityPressure
High88 °F (Nov 14, 1:00 PM)100% (Nov 21, 1:00 AM)30.01 "Hg (Nov 21, 1:00 AM)
Low72 °F (Nov 22, 2:00 AM)66% (Nov 14, 10:00 AM)29.80 "Hg (Nov 13, 3:00 AM)
Average81 °F81%29.91 "Hg
* Reported Nov 12 6:00 PM — Nov 27 6:00 PM, Bridgetown, Weather by CustomWeather, © 2014

Note: Actual official high and low records may vary slightly from our data, if they occured in-between our weather recording intervals... More about our weather records

Advertising

Bridgetown weather history for previous 24 hours

 ConditionsComfort  
Time TempWeatherWind HumidityBarometerVisibility
6:00 PM
Nov 27
79 °FPassing clouds.9 mph89%29.89 "HgN/A
5:00 PM81 °FScattered clouds.14 mph79%29.89 "HgN/A
4:00 PM82 °FScattered clouds.13 mph79%29.89 "HgN/A
3:00 PM84 °FScattered clouds.14 mph79%29.86 "HgN/A
2:00 PM84 °FScattered clouds.15 mph79%29.89 "HgN/A
1:00 PM86 °FScattered clouds.13 mph75%29.89 "HgN/A
12:00 PM84 °FScattered showers. Scattered clouds.14 mph79%29.92 "HgN/A
11:00 AM82 °FScattered showers. Partly sunny.9 mph84%29.95 "HgN/A
10:00 AM75 °FLight rain. Partly sunny.8 mph94%29.95 "Hg6 mi
9:00 AM79 °FScattered showers. Partly sunny.12 mph89%29.95 "Hg6 mi
8:00 AM79 °FLots of rain. Partly sunny.20 mph89%29.95 "Hg1 mi
7:00 AM79 °FBroken clouds.15 mph84%29.92 "HgN/A
6:00 AM75 °FPartly cloudy.7 mph94%29.89 "HgN/A
5:00 AM75 °FLight rain. Passing clouds.15 mph83%29.89 "HgN/A
4:00 AM79 °FPassing clouds.16 mph79%29.86 "HgN/A
3:00 AM79 °FPassing clouds.16 mph79%29.86 "HgN/A
2:00 AM77 °FPassing clouds.15 mph89%29.86 "HgN/A
1:00 AM77 °FPassing clouds.17 mph89%29.89 "HgN/A
12:00 AM77 °FPassing clouds.15 mph89%29.92 "HgN/A
11:00 PM
Nov 26
77 °FPassing clouds.16 mph94%29.92 "HgN/A
10:00 PM79 °FPassing clouds.17 mph84%29.92 "HgN/A
9:00 PM79 °FPassing clouds.15 mph84%29.92 "HgN/A
8:00 PM81 °FPassing clouds.17 mph74%29.92 "HgN/A
7:00 PM79 °FPassing clouds.14 mph84%29.89 "HgN/A
Weather by CustomWeather, © 2014

See weather overviewHow to use our weather pages